{"data":{"norad_id":53982,"epoch":"2026-09-20T22:00:03.000096Z","epoch_age_seconds":50670,"freshness":"FRESH","line1":"1 53982U 22125U   26263.91670139  .00039171  00000+0  14865-2 0  9990","line2":"2 53982  53.1595  56.0431 0001332  61.4534 153.2116 15.26494505  5801","mean_motion":15.26494505,"eccentricity":0.0001332,"inclination_deg":53.1595,"raan_deg":56.0431,"arg_perigee_deg":61.4534,"mean_anomaly_deg":153.2116,"bstar":0.0014865,"rev_number":580,"period_min":94.333782092455,"perigee_km":485.38704134857,"apogee_km":487.21572773421,"semimajor_km":6864.4383845414,"source":"CELESTRAK","updated_at":"2026-09-21T09:00:33.043078Z"}}